Time,TemperatureF,DewpointF,PressureIn,WindDirection,WindDirectionDegrees,WindSpeedMPH,WindSpeedGustMPH,Humidity,HourlyPrecipIn,Conditions,Clouds,dailyrainin,SoftwareType,DateUTC
2013-11-08 00:02:00,35.8,28.0,30.01,WNW,292,5.3,-999.0,73,-99.99,,,0.00,Acu-Link.com,2013-11-08 05:02:00,
2013-11-08 00:18:00,35.6,28.1,30.01,West,270,4.7,-999.0,74,-99.99,,,0.00,Acu-Link.com,2013-11-08 05:18:00,
2013-11-08 00:33:00,35.8,28.3,30.02,West,270,4.2,-999.0,74,-99.99,,,0.00,Acu-Link.com,2013-11-08 05:33:00,
2013-11-08 00:48:00,35.6,28.1,30.02,North,0,3.2,-999.0,74,-99.99,,,0.00,Acu-Link.com,2013-11-08 05:48:00,
2013-11-08 01:03:00,35.6,28.1,30.02,WSW,247,3.7,-999.0,74,-99.99,,,0.00,Acu-Link.com,2013-11-08 06:03:00,
2013-11-08 01:18:00,35.1,27.7,30.02,WNW,292,7.3,-999.0,74,-99.99,,,0.00,Acu-Link.com,2013-11-08 06:18:00,
2013-11-08 01:33:00,35.1,27.7,30.03,West,270,4.2,-999.0,74,-99.99,,,0.00,Acu-Link.com,2013-11-08 06:33:00,
2013-11-08 01:48:00,35.1,28.0,30.03,West,270,3.2,-999.0,75,-99.99,,,0.00,Acu-Link.com,2013-11-08 06:48:00,
2013-11-08 02:03:00,34.9,27.8,30.03,WNW,292,3.7,-999.0,75,-99.99,,,0.00,Acu-Link.com,2013-11-08 07:03:00,
2013-11-08 02:18:00,34.9,27.8,30.04,West,270,3.2,-999.0,75,-99.99,,,0.00,Acu-Link.com,2013-11-08 07:18:00,
2013-11-08 02:34:00,34.7,27.9,30.04,WNW,292,6.3,-999.0,76,-99.99,,,0.00,Acu-Link.com,2013-11-08 07:34:00,
2013-11-08 02:49:00,34.5,27.7,30.04,WNW,292,3.7,-999.0,76,-99.99,,,0.00,Acu-Link.com,2013-11-08 07:49:00,
2013-11-08 11:02:00,42.3,30.2,30.18,West,270,5.3,-999.0,62,-99.99,,,0.00,Acu-Link.com,2013-11-08 16:02:00,
2013-11-08 11:17:00,42.3,29.4,30.18,WSW,247,4.7,-999.0,60,-99.99,,,0.00,Acu-Link.com,2013-11-08 16:17:00,
2013-11-08 11:32:00,42.8,29.1,30.18,NNW,337,2.7,-999.0,58,-99.99,,,0.00,Acu-Link.com,2013-11-08 16:32:00,
2013-11-08 11:48:00,42.4,29.9,30.17,NNW,337,6.3,-999.0,61,-99.99,,,0.00,Acu-Link.com,2013-11-08 16:48:00,
2013-11-08 12:04:00,41.5,28.3,30.17,West,270,3.7,-999.0,59,-99.99,,,0.00,Acu-Link.com,2013-11-08 17:04:00,
2013-11-08 12:19:00,42.3,27.7,30.16,West,270,4.7,-999.0,56,-99.99,,,0.00,Acu-Link.com,2013-11-08 17:19:00,
2013-11-08 12:35:00,43.0,28.8,30.16,SW,225,5.3,-999.0,57,-99.99,,,0.00,Acu-Link.com,2013-11-08 17:35:00,
2013-11-08 12:50:00,43.2,28.1,30.16,West,270,2.7,-999.0,55,-99.99,,,0.00,Acu-Link.com,2013-11-08 17:50:00,
2013-11-08 13:05:00,42.8,29.1,30.15,WNW,292,2.7,-999.0,58,-99.99,,,0.00,Acu-Link.com,2013-11-08 18:05:00,
2013-11-08 13:20:00,44.4,29.3,30.15,SSW,202,4.7,-999.0,55,-99.99,,,0.00,Acu-Link.com,2013-11-08 18:20:00,
2013-11-08 14:27:00,45.0,28.4,30.14,South,180,3.7,-999.0,52,-99.99,,,0.00,Acu-Link.com,2013-11-08 19:27:00,
2013-11-08 14:42:00,43.7,27.7,30.13,WSW,247,1.7,-999.0,53,-99.99,,,0.00,Acu-Link.com,2013-11-08 19:42:00,
2013-11-08 14:57:00,46.0,28.4,30.13,West,270,3.7,-999.0,50,-99.99,,,0.00,Acu-Link.com,2013-11-08 19:57:00,
2013-11-08 15:12:00,46.0,27.4,30.13,SSW,202,6.3,-999.0,48,-99.99,,,0.00,Acu-Link.com,2013-11-08 20:12:00,
2013-11-08 15:27:00,45.9,26.8,30.13,West,270,6.3,-999.0,47,-99.99,,,0.00,Acu-Link.com,2013-11-08 20:27:00,
2013-11-08 15:43:00,43.2,27.2,30.13,SW,225,4.2,-999.0,53,-99.99,,,0.00,Acu-Link.com,2013-11-08 20:43:00,
2013-11-08 15:58:00,45.0,28.0,30.13,West,270,2.7,-999.0,51,-99.99,,,0.00,Acu-Link.com,2013-11-08 20:58:00,
2013-11-08 16:13:00,44.2,27.2,30.13,SW,225,4.7,-999.0,51,-99.99,,,0.00,Acu-Link.com,2013-11-08 21:13:00,
2013-11-08 16:29:00,43.9,27.0,30.13,WSW,247,2.7,-999.0,51,-99.99,,,0.00,Acu-Link.com,2013-11-08 21:29:00,
2013-11-08 16:44:00,42.6,26.7,30.13,West,270,2.7,-999.0,53,-99.99,,,0.00,Acu-Link.com,2013-11-08 21:44:00,
2013-11-08 16:59:00,41.9,26.5,30.12,WSW,247,2.2,-999.0,54,-99.99,,,0.00,Acu-Link.com,2013-11-08 21:59:00,
2013-11-08 17:14:00,40.8,26.3,30.12,South,180,2.7,-999.0,56,-99.99,,,0.00,Acu-Link.com,2013-11-08 22:14:00,
2013-11-08 17:29:00,39.7,26.2,30.12,West,270,1.7,-999.0,58,-99.99,,,0.00,Acu-Link.com,2013-11-08 22:29:00,
2013-11-08 17:44:00,39.4,26.3,30.13,SW,225,2.2,-999.0,59,-99.99,,,0.00,Acu-Link.com,2013-11-08 22:44:00,
2013-11-08 17:59:00,38.7,26.4,30.13,SSE,157,2.2,-999.0,61,-99.99,,,0.00,Acu-Link.com,2013-11-08 22:59:00,
2013-11-08 18:15:00,38.1,26.6,30.13,SSW,202,1.7,-999.0,63,-99.99,,,0.00,Acu-Link.com,2013-11-08 23:15:00,
2013-11-08 18:30:00,37.0,26.7,30.13,South,180,1.1,-999.0,66,-99.99,,,0.00,Acu-Link.com,2013-11-08 23:30:00,
2013-11-08 18:45:00,36.7,26.8,30.13,South,180,2.2,-999.0,67,-99.99,,,0.00,Acu-Link.com,2013-11-08 23:45:00,
2013-11-08 19:00:00,36.1,26.9,30.13,South,180,0.0,-999.0,69,-99.99,,,0.00,Acu-Link.com,2013-11-09 00:00:00,
2013-11-08 19:16:00,35.1,26.7,30.13,ESE,112,0.0,-999.0,71,-99.99,,,0.00,Acu-Link.com,2013-11-09 00:16:00,
2013-11-08 19:31:00,34.2,26.5,30.12,ESE,112,0.0,-999.0,73,-99.99,,,0.00,Acu-Link.com,2013-11-09 00:31:00,
2013-11-08 19:46:00,33.1,26.4,30.12,SE,135,0.0,-999.0,76,-99.99,,,0.00,Acu-Link.com,2013-11-09 00:46:00,
2013-11-08 20:05:00,31.1,26.0,30.12,ESE,112,0.0,-999.0,81,-99.99,,,0.00,Acu-Link.com,2013-11-09 01:05:00,
2013-11-08 20:20:00,30.2,25.4,30.11,SE,135,0.0,-999.0,82,-99.99,,,0.00,Acu-Link.com,2013-11-09 01:20:00,
2013-11-08 20:35:00,29.1,24.0,30.11,ESE,112,0.0,-999.0,81,-99.99,,,0.00,Acu-Link.com,2013-11-09 01:35:00,
2013-11-08 20:50:00,28.8,24.3,30.11,SE,135,0.0,-999.0,83,-99.99,,,0.00,Acu-Link.com,2013-11-09 01:50:00,
2013-11-08 21:06:00,28.9,25.0,30.10,SE,135,0.0,-999.0,85,-99.99,,,0.00,Acu-Link.com,2013-11-09 02:06:00,
2013-11-08 21:21:00,29.3,25.1,30.11,SE,135,0.0,-999.0,84,-99.99,,,0.00,Acu-Link.com,2013-11-09 02:21:00,
2013-11-08 21:36:00,29.8,25.9,30.10,SSE,157,0.0,-999.0,85,-99.99,,,0.00,Acu-Link.com,2013-11-09 02:36:00,
2013-11-08 21:51:00,31.1,27.1,30.10,NE,45,0.0,-999.0,85,-99.99,,,0.00,Acu-Link.com,2013-11-09 02:51:00,
2013-11-08 22:07:00,32.5,27.3,30.10,SSE,157,0.0,-999.0,81,-99.99,,,0.00,Acu-Link.com,2013-11-09 03:07:00,
2013-11-08 22:22:00,33.8,27.7,30.10,SSE,157,1.7,-999.0,78,-99.99,,,0.00,Acu-Link.com,2013-11-09 03:22:00,
2013-11-08 22:37:00,34.3,28.2,30.11,SW,225,0.0,-999.0,78,-99.99,,,0.00,Acu-Link.com,2013-11-09 03:37:00,
2013-11-08 22:52:00,34.3,28.2,30.09,South,180,0.0,-999.0,78,-99.99,,,0.00,Acu-Link.com,2013-11-09 03:52:00,
2013-11-08 23:07:00,34.5,28.4,30.09,East,90,0.0,-999.0,78,-99.99,,,0.00,Acu-Link.com,2013-11-09 04:07:00,
2013-11-08 23:22:00,34.9,28.8,30.08,SE,135,0.0,-999.0,78,-99.99,,,0.00,Acu-Link.com,2013-11-09 04:22:00,
2013-11-08 23:38:00,35.2,28.7,30.08,SSE,157,1.7,-999.0,77,-99.99,,,0.00,Acu-Link.com,2013-11-09 04:38:00,
2013-11-08 23:53:00,35.2,29.0,30.08,South,180,1.7,-999.0,78,-99.99,,,0.00,Acu-Link.com,2013-11-09 04:53:00,